Regional Weather Roundup
Issued by NWS Wakefield, VA

Home | Current Version | Previous Version | Text Only | Print | Product List | Glossary On
Versions: 1 2 3 4 5 6 7 8 9 10 11 12 13 14 15 16 17 18 19 20 21 22 23 24 25 26 27 28 29 30 31 32 33 34 35 36 37 38 39 40 41 42 43 44 45 46 47 48
000
ASUS41 KAKQ 011010
RWRAKQ

REGIONAL WEATHER ROUNDUP
NATIONAL WEATHER SERVICE WAKEFIELD VA
600 AM EDT WED OCT 01 2014

Note: "fair" indicates few or no clouds below 12,000 feet with no
significant weather and/or obstructions to visibility. * = Denotes
station may not report precipitation (e.g., rain,snow,etc.),
thunder or fog.

VAZ042-051-052>054-056-011100-
NORTHERN VIRGINIA

CITY           SKY/WX    TMP DP  RH WIND       PRES   REMARKS
WASH NATIONAL  LGT RAIN  67  60  78 NE8       29.97S
DULLES         LGT RAIN  63  62  97 CALM      29.97R FOG
FORT BELVOIR   DRIZZLE   66  63  88 CALM      29.97R
QUANTICO       CLOUDY    66  63  90 N8        29.97R
FREDERICKSBRG* CLOUDY    64  64 100 NW3       29.96R FOG
STAFFORD*      CLOUDY    62  62 100 CALM      30.00R FOG
WARRENTON      CLOUDY    64  64 100 CALM      29.96R FOG
CULPEPER*      CLOUDY    63  61  94 CALM      29.98R FOG
MANASSAS*      CLOUDY    64  64 100 N3        29.97R
LEESBURG*      CLOUDY    63  63 100 N3        29.99R FOG
WINCHESTER     RAIN      61  61 100 CALM      29.98S
FRONT ROYAL*   CLOUDY    61  61 100 CALM      29.96S
LURAY*         CLOUDY    63  63 100 CALM      29.98R FOG
$$

VAZ048-049-060>072-079>083-011100-
CENTRAL AND SOUTH CENTRAL VIRGINIA...AND NORTH CENTRAL NORTH CAROLINA

CITY           SKY/WX    TMP DP  RH WIND       PRES   REMARKS
RICHMOND       MOCLDY    62  60  93 CALM      29.95R FOG
CHESTERFIELD*  CLOUDY   N/A N/A N/A CALM      29.96R
PETERSBURG*    CLOUDY    55  54  97 CALM      29.96R FOG
HANOVER        CLOUDY    60  59  96 CALM      29.96S FOG
TAPPAHANNOCK*  FOG       59  57  94 CALM      29.96R VSB<1/4
CHARLOTTSVILLE CLOUDY    62  60  93 N3        29.97R FOG
ORANGE*        CLOUDY    61  59  94 N3        29.98R FOG
LOUISA*        CLOUDY    61  61 100 CALM      29.95R FOG
FARMVILLE*     CLOUDY    61  59  94 CALM      29.94S FOG
CREWE*         CLOUDY    58  56  95 CALM      29.95S
FORT PICKETT*  PTSUNNY   58  57  97 CALM      29.95S
LUNENBURG*     MOSUNNY  -37 -38  96 CALM      29.95S
SOUTH HILL*    FOG       57  57 100 CALM      30.00S VSB 1
LAWRENCEVILLE* CLOUDY    57  57 100 CALM      29.95R VSB 3/4
ROANOKE RAPIDS FOG       57  57 100 CALM      29.95R VSB 1/4
RALEIGH        PTCLDY    59  57  93 NE5       29.96R FOG
$$

VAZ088>098-011100-
SOUTHEAST VIRGINIA

CITY           SKY/WX    TMP DP  RH WIND       PRES   REMARKS
NORFOLK        CLEAR     68  62  81 N7        29.93R
VIRGINIA BEACH PTCLDY    64  60  87 NW3       29.92R
NORFOLK NAVAL  PTCLDY    68  61  78 NE8       29.94R
WEST POINT*    PTCLDY    60  58  93 CALM      29.95S
NEWPORT NEWS   FOG       65  61  87 CALM      29.94R VSB 1/4
LANGLEY AFB    PTCLDY    64 N/A N/A NW5       29.94R
FORT EUSTIS    CLEAR     63 N/A N/A N2        29.92S HAZE
WILLIAMSBURG*  CLEAR     63  61  94 CALM      29.95R
HR EXEC AP*    CLOUDY    55  54  94 CALM      29.95S VSB 1/2
FRANKLIN*      CLOUDY    59 N/A N/A CALM      29.94S VSB<1/4
WAKEFIELD      CLEAR     57  55  93 CALM      29.94R FOG
$$

VAZ020-022-025-037-045-011100-
WEST CENTRAL AND SOUTHWEST VIRGINIA

CITY           SKY/WX    TMP DP  RH WIND       PRES   REMARKS
STAUNTON*      MOCLDY    59  57  92 CALM      30.00R FOG
HOT SPRINGS VA MOCLDY    55  38  53 CALM      30.05S
LYNCHBURG      CLOUDY    63  63 100 CALM      29.98S
DANVILLE       CLOUDY    63  61  93 CALM      29.96S FOG
SOUTH BOSTON*  NOT AVBL
MARTINSVILLE   FOG       59  59 100 CALM      30.00R VSB 1/4
ROANOKE        MOCLDY    57  55  93 CALM      29.99S
BLACKSBURG       N/A     52  52 100 CALM      30.02R FOG
DUBLIN*        CLEAR     51  51 100 CALM      30.02R FOG
MARION*        CLEAR     50  49  96 CALM      30.04S FOG
HILLSVILLE*    CLEAR     51  50  97 SW3       30.02R
RICHLANDS*     SUNNY     59  54  84 CALM      30.03R
WISE*          CLEAR     54  52  94 CALM      30.03R
ABINGDON*      CLEAR     55  54  98 CALM      30.01R
$$

MDZ021>025-VAZ099-100-011100-
SOUTHERN MARYLAND AND THE DELMARVA PENINSULA

CITY           SKY/WX    TMP DP  RH WIND       PRES   REMARKS
PATUXENT RIVER MOCLDY    64  61  90 E5        29.95S
BAY BRIDGE APT   N/A     63  61  94 NE5       29.97R
LEONARDTOWN    CLOUDY    61  59  94 CALM      29.96S
DOVER          CLOUDY    62  62 100 N6        29.95R
GEORGETOWN     CLOUDY    65  62  90 NE7       29.96R
EASTON         MOCLDY    62  62 100 CALM      30.00R
CAMBRIDGE      CLOUDY    63  59  88 N6        29.95R
SALISBURY      CLOUDY    64  61  88 N5        29.94S
OCEAN CITY     PTCLDY   N/A N/A N/A N5        29.93S HAZE
WALLOPS ISLAND CLEAR     62  60  93 N7        29.94R
ACCOMACK*      CLEAR     61  59  94 N6        29.94R
$$

NCZ012>017-030>032-011100-
EASTERN NORTH CAROLINA

CITY           SKY/WX    TMP DP  RH WIND       PRES   REMARKS
ELIZABETH CITY CLEAR     64  63  96 N6        29.91S
AHOSKIE*       MOCLDY    56  56  97 CALM      29.94S FOG
EDENTON*       CLEAR     59  58  97 N5        29.92S
CURRITUCK*     CLEAR     62  61  94 CALM      29.92S
KILL DEVIL HLS CLEAR     69  63  81 N5        29.89R
MANTEO         CLEAR     67  63  85 N10       29.90S
CAPE HATTERAS  MOCLDY    68  66  93 NE8       29.89R
TARBORO*       FOG       57  57  97 CALM      29.95R VSB 1/4
GOLDSBORO      CLEAR     60  60  98 CALM      29.92R
WASHINGTON     CLEAR     59  59  98 N3        29.93R
GREENVILLE     HVY RAIN  55  55 100 CALM      29.95S VSB 3/4
NEW BERN       PTCLDY    64  61  88 N5        29.93R
WILMINGTON     CLOUDY    62  61  96 N3        29.91S FOG
$$

VAZ048-011100-
ELSEWHERE

CITY           SKY/WX    TMP DP  RH WIND       PRES   REMARKS
HARRISBURG PA  CLOUDY    60  58  92 NE5       29.98R FOG
BALTIMORE      MOCLDY    62  60  93 E6        29.96S
ANNAPOLIS      PTCLDY    64  60  87 MISG      29.96S
ANDREWS AFB    CLOUDY    63  62  99 NE5       29.97R
WILMINGTON DE  MOCLDY    61  58  90 N5        29.97F
PHILADELPHIA   CLOUDY    64  58  80 NE8       29.98R
WILDWOOD NJ*   CLOUDY    63  57  82 N9        29.96R
ATLANTIC CITY  CLOUDY    62  61  96 N10       29.96R FOG
HENDERSON NC   FOG       60  59  96 CALM      29.95S VSB<1/4
GREENSBORO     FOG       60  60 100 NE3       29.95R VSB 1/2
ROCKY MOUNT    FOG       59  58  96 N3        29.95R VSB 1/2
FAYETTEVILLE   FOG       60  60 100 CALM      29.93R VSB 1/4
CHARLOTTE      CLEAR     59  58  96 CALM      29.95R
$$

VAZ100-011100-
MARINE

STATION/POSITION TIME  TEMP    WIND        PRES    WAVE   SWELL
                       AIR SEA DIR/SP/G            HT/PER HT/PER
                 (UTC) (F)     (DEG/KT/KT) (MB)    (FT/S) (FT/S)
44066 TX TWR #4  1000   66 69   30/ 17/ 19 1012.8R   5/ 6   2/14
CAPE MAY NJ      1000   63 73   20/  3/  5 1013.5R
LEWES DE         1000   66 70   30/ 15/ 18 1013.8R
15NM E FENWICK I 1000   69 70              1013.0R   3/ 6
OCEAN-CITY-INLET 1000   65 71   10/  8/ 10 1013.1R
WACHAPREAGUE VA  1000   62 73  360/  3/  5 1013.5R
THOMAS POINT MD  1000   64 72   60/  9/ 10 1015.5R
GOOSES REEF MD   1000   66      70/ 12/ 14 1014.6S
COVE POINT MD    1000   65      50/  7/  9 1014.1R
SOLOMONS ISLAND  1000      72                N/A
BISHOPS HEAD MD  1000   64 72   40/  9/ 11 1013.5R
PINEY POINT MD   1000           70/  5/  6   N/A
POTOMAC MD       1000   67      50/  8/ 10 1013.1S
CAMBRIDGE MD     1000   62 71   40/  8/  9 1014.0R
LEWISETTA VA     1000   67 72   60/  8/ 11 1013.6R
RAPPAHANNOCK LGT 1000           40/ 10/ 11 1014.1R
STINGRAY PT      1000   69      40/  8/ 10   N/A
YORK RVR RNG VA  1000   68      20/  8/  9 1013.0R
YORKTOWN VA      1000   66 73  340/  5/  6 1013.2R
JAMESTOWN VA     1000   63     360/  4/  4   N/A
DOMINION TERM VA 1000   67      CALM  /  2 1013.4S
KIPTOPEKE VA     1000      76   30/  5/  8   N/A
CHES BAY BRIDGE  1000   69 72  360/  8/  9 1012.8R
CHESAPEAKE LGHT  0900   70      30/ 12/ 14 1013.3R
WILLOUBY STN VA  1000   67     340/  5/  6 1012.2R
S CRANEY ISL VA  1000          360/  7/  8 1013.1R
CAPE HENRY BUOY  1000      73                N/A     3/13   2/13
1ST LANDING BUOY 1000   69      10/  8/ 10 1013.0R
CAPE CHARLES BUO 1000      72                N/A     2/14   2/14
OFFSHORE WE BUOY 1000      72                N/A     3/13   2/13
64NM E OF VA BCH 1000   70 72   10/ 14/ 16 1011.6R   3/ 5   2/14
DUCK PIER NC     1000   70 73   20/ 15/ 16 1011.7R
44100 DUCK FRF   1000      72                N/A     3/ 4   2/13
44056 DUCK FRF   1000                        N/A     3/ 4
OREGON INLET NC  1000   70 74   10/ 12/ 15 1012.0R
HATTERAS NC      1000   71 74   20/ 12/ 16 1012.4R
DIAMOND SHLS NC  1000   72     360/ 16/ 19 1011.3R   4/ 7   2/11
CAPE LOOKOUT NC  0900   68      20/  9/ 11 1012.0R
$$



USA.gov is the U.S. government's official web portal to all federal, state and local government web resources and services.